Weather History for PAJC - November, 2012

Change the Weather History Date:

Monday, November 19, 2012

  Actual Average Record
Temperature  
Mean Temperature 19 °F -  
Max Temperature 21 °F 38 °F 48 °F (2003)
Min Temperature 17 °F 32 °F 17 °F (2012)
Degree Days  
Heating Degree Days 46    
Moisture  
Dew Point 9 °F    
Average Humidity 63    
Maximum Humidity 73    
Minimum Humidity 54    
Precipitation  
Precipitation 0.00 in - - ()
Sea Level Pressure  
Sea Level Pressure 29.60 in    
Wind  
Wind Speed 19 mph (West)    
Max Wind Speed 30 mph    
Max Gust Speed 40 mph    
Visibility 10 miles    
Events      
Averages and records for this station are not official NWS values.
T = Trace of Precipitation, MM = Missing Value Source: NWS Daily Summary

Daily Weather History Graph

Daily Weather History Graph

Search for Another Location

Airport or City:

Trip Planner

Search our weather history database for the weather conditions in past years. The results will help you decide how hot, cold, wet, or windy it might be!

Date:

Astronomy

Nov. 19, 2012 Rise Set
Actual Time 9:21 AM AKST 5:16 PM AKST
Civil Twilight 8:37 AM AKST 5:59 PM AKST
Nautical Twilight 7:50 AM AKST 6:46 PM AKST
Astronomical Twilight 7:06 AM AKST 7:31 PM AKST
Moon 2:01 PM AKST (11/19) No Moon Set
Length of Visible Light 9h 22m
Length of Day
7h 54m
Waxing Crescent, 42% of the Moon is Illuminated
Nov 19
Waxing Crescent
Nov 20
First Quarter
Nov 28
Full
Dec 6
Last Quarter
Dec 12
New

Hourly Weather History & Observations

Time (AKST) Temp. Windchill Dew Point Humidity Pressure Visibility Wind Dir Wind Speed Gust Speed Precip Events Conditions
12:16 AM 19.4 °F 0.5 °F 8.6 °F 63% 29.46 in 10.0 mi WSW 29.9 mph 40.3 mph N/A   Mostly Cloudy
12:36 AM 19.4 °F 3.2 °F 8.6 °F 63% 29.48 in 10.0 mi WSW 20.7 mph 39.1 mph N/A   Mostly Cloudy
12:56 AM 19.4 °F 1.8 °F 10.4 °F 68% 29.48 in 10.0 mi WSW 25.3 mph 39.1 mph N/A   Mostly Cloudy
1:16 AM 19.4 °F 1.4 °F 8.6 °F 63% 29.48 in 10.0 mi WSW 26.5 mph 39.1 mph N/A   Overcast
1:36 AM 19.4 °F 2.8 °F 8.6 °F 63% 29.50 in 10.0 mi West 21.9 mph 38.0 mph N/A   Overcast
1:56 AM 19.4 °F 4.5 °F 8.6 °F 63% 29.50 in 10.0 mi West 17.3 mph 34.5 mph N/A   Overcast
2:16 AM 19.4 °F 5.5 °F 8.6 °F 63% 29.52 in 10.0 mi West 15.0 mph 28.8 mph N/A   Overcast
2:36 AM 19.4 °F 4.5 °F 6.8 °F 58% 29.51 in 10.0 mi WNW 17.3 mph 29.9 mph N/A   Overcast
2:56 AM 19.4 °F 4.5 °F 6.8 °F 58% 29.52 in 10.0 mi NW 17.3 mph 27.6 mph N/A   Overcast
3:16 AM 19.4 °F 2.8 °F 6.8 °F 58% 29.51 in 10.0 mi West 21.9 mph 33.4 mph N/A   Overcast
3:36 AM 19.4 °F 5.5 °F 6.8 °F 58% 29.52 in 10.0 mi WNW 15.0 mph 36.8 mph N/A   Mostly Cloudy
3:56 AM 19.4 °F 5.5 °F 6.8 °F 58% 29.52 in 10.0 mi NW 15.0 mph 38.0 mph N/A   Mostly Cloudy
4:16 AM 21.2 °F 8.9 °F 8.6 °F 58% 29.52 in 10.0 mi West 12.7 mph 27.6 mph N/A   Overcast
4:36 AM 21.2 °F 8.3 °F 8.6 °F 58% 29.52 in 10.0 mi West 13.8 mph 20.7 mph N/A   Overcast
4:56 AM 21.2 °F 7.8 °F 8.6 °F 58% 29.52 in 10.0 mi West 15.0 mph 25.3 mph N/A   Overcast
5:16 AM 21.2 °F 7.3 °F 10.4 °F 63% 29.52 in 10.0 mi West 16.1 mph 33.4 mph N/A   Overcast
5:36 AM 21.2 °F 6.0 °F 10.4 °F 63% 29.52 in 10.0 mi WSW 19.6 mph 27.6 mph N/A   Overcast
5:56 AM 21.2 °F 8.9 °F 10.4 °F 63% 29.52 in 10.0 mi West 12.7 mph 28.8 mph N/A   Overcast
6:16 AM 21.2 °F 7.3 °F 8.6 °F 58% 29.53 in 10.0 mi West 16.1 mph 26.5 mph N/A   Overcast
6:36 AM 19.4 °F 7.9 °F 8.6 °F 63% 29.54 in 10.0 mi West 10.4 mph 21.9 mph N/A   Overcast
6:56 AM 21.2 °F 6.8 °F 10.4 °F 63% 29.54 in 10.0 mi West 17.3 mph 24.2 mph N/A   Mostly Cloudy
7:16 AM 21.2 °F 8.3 °F 8.6 °F 58% 29.54 in 10.0 mi West 13.8 mph 23.0 mph N/A   Scattered Clouds
7:36 AM 19.4 °F 7.2 °F 8.6 °F 63% 29.55 in 10.0 mi West 11.5 mph 23.0 mph N/A   Mostly Cloudy
7:56 AM 19.4 °F 4.5 °F 8.6 °F 63% 29.55 in 10.0 mi WSW 17.3 mph 24.2 mph N/A   Mostly Cloudy
8:16 AM 19.4 °F 5.0 °F 6.8 °F 58% 29.57 in 10.0 mi West 16.1 mph 25.3 mph N/A   Scattered Clouds
8:36 AM 19.4 °F 6.0 °F 6.8 °F 58% 29.57 in 10.0 mi West 13.8 mph 24.2 mph N/A   Partly Cloudy
8:56 AM 19.4 °F 5.5 °F 8.6 °F 63% 29.57 in 10.0 mi West 15.0 mph 25.3 mph N/A   Scattered Clouds
9:16 AM 19.4 °F 5.5 °F 6.8 °F 58% 29.57 in 10.0 mi West 15.0 mph 26.5 mph N/A   Mostly Cloudy
9:36 AM 19.4 °F 6.0 °F 6.8 °F 58% 29.58 in 10.0 mi West 13.8 mph 29.9 mph N/A   Scattered Clouds
9:56 AM 19.4 °F 7.9 °F 6.8 °F 58% 29.60 in 10.0 mi West 10.4 mph 26.5 mph N/A   Partly Cloudy
10:16 AM 17.6 °F 5.0 °F 6.8 °F 63% 29.60 in 10.0 mi WNW 11.5 mph 19.6 mph N/A   Partly Cloudy
10:36 AM 19.4 °F 5.5 °F 6.8 °F 58% 29.60 in 10.0 mi West 15.0 mph 20.7 mph N/A   Partly Cloudy
10:56 AM 19.4 °F 6.6 °F 5.0 °F 54% 29.62 in 10.0 mi West 12.7 mph 24.2 mph N/A   Clear
11:16 AM 19.4 °F 4.1 °F 6.8 °F 58% 29.62 in 10.0 mi WNW 18.4 mph 24.2 mph N/A   Clear
11:36 AM 19.4 °F 5.5 °F 6.8 °F 58% 29.63 in 10.0 mi WNW 15.0 mph 27.6 mph N/A   Clear
11:56 AM 19.4 °F 6.0 °F 6.8 °F 58% 29.63 in 10.0 mi WNW 13.8 mph 34.5 mph N/A   Clear
12:16 PM 19.4 °F 6.6 °F 6.8 °F 58% 29.63 in 10.0 mi West 12.7 mph 28.8 mph N/A   Clear
12:36 PM 17.6 °F 2.7 °F 6.8 °F 63% 29.63 in 10.0 mi West 16.1 mph 29.9 mph N/A   Clear
12:56 PM 19.4 °F 5.0 °F 6.8 °F 58% 29.63 in 10.0 mi West 16.1 mph 21.9 mph N/A   Clear
1:16 PM 19.4 °F 6.6 °F 6.8 °F 58% 29.64 in 10.0 mi WNW 12.7 mph 23.0 mph N/A   Clear
1:36 PM 19.4 °F 6.6 °F 6.8 °F 58% 29.64 in 10.0 mi West 12.7 mph 20.7 mph N/A   Clear
1:56 PM 19.4 °F 5.5 °F 8.6 °F 63% 29.64 in 10.0 mi West 15.0 mph 25.3 mph N/A   Clear
2:16 PM 19.4 °F 3.6 °F 6.8 °F 58% 29.64 in 10.0 mi West 19.6 mph 26.5 mph N/A   Clear
2:36 PM 19.4 °F 3.6 °F 8.6 °F 63% 29.64 in 10.0 mi West 19.6 mph 26.5 mph N/A   Clear
2:56 PM 19.4 °F 4.5 °F 6.8 °F 58% 29.65 in 10.0 mi West 17.3 mph 28.8 mph N/A   Clear
3:16 PM 17.6 °F 1.7 °F 6.8 °F 63% 29.65 in 10.0 mi West 18.4 mph 28.8 mph N/A   Clear
3:36 PM 17.6 °F 1.3 °F 8.6 °F 68% 29.65 in 10.0 mi West 19.6 mph 27.6 mph N/A   Clear
3:56 PM 17.6 °F 2.7 °F 8.6 °F 68% 29.66 in 10.0 mi West 16.1 mph 27.6 mph N/A   Clear
4:16 PM 17.6 °F 0.1 °F 8.6 °F 68% 29.65 in 10.0 mi West 23.0 mph 28.8 mph N/A   Clear
4:36 PM 19.4 °F 3.6 °F 8.6 °F 63% 29.66 in 10.0 mi West 19.6 mph 34.5 mph N/A   Clear
4:56 PM 19.4 °F 2.5 °F 8.6 °F 63% 29.65 in 10.0 mi West 23.0 mph 29.9 mph N/A   Clear
5:16 PM 19.4 °F 2.8 °F 10.4 °F 68% 29.66 in 10.0 mi WSW 21.9 mph 26.5 mph N/A   Clear
5:36 PM 17.6 °F 2.7 °F 8.6 °F 68% 29.66 in 10.0 mi West 16.1 mph 26.5 mph N/A   Clear
5:56 PM 19.4 °F 5.0 °F 8.6 °F 63% 29.66 in 10.0 mi West 16.1 mph 23.0 mph N/A   Clear
6:16 PM 17.6 °F -0.3 °F 10.4 °F 73% 29.66 in 10.0 mi West 24.2 mph 33.4 mph N/A   Clear
6:36 PM 19.4 °F 3.2 °F 10.4 °F 68% 29.65 in 10.0 mi West 20.7 mph 31.1 mph N/A   Clear
6:56 PM 19.4 °F 3.2 °F 10.4 °F 68% 29.65 in 10.0 mi West 20.7 mph 29.9 mph N/A   Clear
7:16 PM 19.4 °F 2.1 °F 10.4 °F 68% 29.66 in 10.0 mi West 24.2 mph 29.9 mph N/A   Clear
7:36 PM 21.2 °F 6.0 °F 10.4 °F 63% 29.66 in 10.0 mi West 19.6 mph 35.7 mph N/A   Clear
7:56 PM 21.2 °F 4.5 °F 10.4 °F 63% 29.66 in 10.0 mi West 24.2 mph 32.2 mph N/A   Clear
8:16 PM 21.2 °F 5.6 °F 10.4 °F 63% 29.65 in 10.0 mi West 20.7 mph 35.7 mph N/A   Partly Cloudy
8:36 PM 21.2 °F 6.0 °F 12.2 °F 68% 29.65 in 10.0 mi West 19.6 mph 31.1 mph N/A   Partly Cloudy
8:56 PM 21.2 °F 5.6 °F 12.2 °F 68% 29.65 in 10.0 mi West 20.7 mph 32.2 mph N/A   Partly Cloudy
9:16 PM 21.2 °F 4.9 °F 12.2 °F 68% 29.65 in 10.0 mi West 23.0 mph 32.2 mph N/A   Partly Cloudy
9:36 PM 21.2 °F 4.9 °F 12.2 °F 68% 29.64 in 10.0 mi West 23.0 mph 38.0 mph N/A   Scattered Clouds
9:56 PM 21.2 °F 3.9 °F 12.2 °F 68% 29.63 in 10.0 mi West 26.5 mph 35.7 mph N/A   Overcast
10:16 PM 21.2 °F 4.5 °F 12.2 °F 68% 29.64 in 9.0 mi West 24.2 mph 32.2 mph N/A   Overcast
10:36 PM 21.2 °F 6.4 °F 12.2 °F 68% 29.65 in 10.0 mi West 18.4 mph 26.5 mph N/A   Overcast
10:56 PM 21.2 °F 4.9 °F 12.2 °F 68% 29.65 in 10.0 mi West 23.0 mph 31.1 mph N/A   Overcast
11:16 PM 21.2 °F 6.0 °F 12.2 °F 68% 29.66 in 10.0 mi West 19.6 mph 33.4 mph N/A   Mostly Cloudy
11:36 PM 21.2 °F 6.0 °F 12.2 °F 68% 29.66 in 10.0 mi West 19.6 mph 28.8 mph N/A   Mostly Cloudy
11:56 PM 21.2 °F 7.3 °F 12.2 °F 68% 29.66 in 10.0 mi WNW 16.1 mph 27.6 mph N/A   Mostly Cloudy